Showing default

ORBCOMM FM 108, 41187

Orbit data source: Space-Track

ORBCOMM FM 108, 41187 is a payload satellite owned by Orbcomm (US) in LEO that was launched on Tue, 22 Dec 2015 UTC via an FALCON 9 launch vehicle from the Air Force Eastern Test Range (AFETR). Payload-class satellites include a variety of spacecraft equipped with specific instruments for various scientific and technological missions. These include communications satellites like Starlink; space stations such as the ISS; scientific satellites like the Hubble; Earth observation satellites from companies like Planet Labs, Umbra, and HawkEye 360; GPS; miniature CubeSats for education and research; and military/defense satellites.

Loading next visibility...
Identifier
41187, 2015-081J
Orbit
LEO
Country
Flag of USUS / ORB
Related business
Manufacturer
SNC Louisville
Mission
Operational Commercial Communications
Bus & Motor
SN-100A, Unknown motor
Mass
172 kg wet, 158 kg dry
Launch date (UTC)
2015-12-22 (10 years ago)
Launch vehicle
FALCON 9
Launch site
Air Force Eastern Test Range (AFETR)
Object type
Payload
Rocket body
Debris
Shape & HBR
Box + 1 Pan + 1 Ant, 10.3 m
Radar Cross Section
2.222 m², Medium (>0.1 m² and < 1m²)

Expand to show TLE details & history
Last TLE update: 12 hours ago

TLE from 12 hours ago
0 ORBCOMM FM 108
1 41187U 15081J   25308.96716675  .00000700  00000-0  18573-3 0  9995
2 41187  47.0034 162.0007 0002696 243.2650 116.7960 14.58459103527343
Epoch: 2025-11-04T23:12Z
TLE epoch observation values (Epoch: 2025-11-04T23:12:43.207Z)
Latitude
Longitude
129.37408°
Altitude
699.23 km
Speed
7.507 km/s
True Right ascension
10h 48m 00s
True Declination
0° 00' 00"
Sunlit
Object was in daylight at epoch
Visualization orbit readout
Latitude
Unknown
Longitude
Unknown
Altitude
Unknown
Speed
Unknown
Apparent Right ascension
Unknown
Apparent Declination
Unknown
Sunlit
N/A
Visualization observer readout
Local Sidereal Time
07:35:15
Azimuth
Unknown
Elevation
Unknown
Doppler factor
Unknown
Orbital elements
Apogee altitude
701.296 km
Perigee altitude
697.48 km
Semi-major axis
7,077.525 km
Eccentricity
0.00027
Inclination
47.0034°
RAAN
162.0007°
Arg. of periapsis
243.265°
True anomaly
116.82357°
Mean anomaly
116.796°
Eccentric anomaly
116.80979°
Mean motion
3.6452 °/min
Orbital period
98.76 mins
BSTAR
0.00018573
Loading maneuver chart data...
Computing Atmospheric mass density...
Loading historical data...
Loading historical data...
Loading historical data...
Loading historical data...
Loading historical data...
Loading historical data...
Loading historical data...

Documentation

Showing up to 5 results
|